FW5161 Weather Reports


Display with metric or nautical units.
time (UTC)temp
F
wind
direction
speed
MPH
gust
MPH
rain 1hr
in
rain 24hr
in
rain mn
in
humidity
%
barometer
mb
20260906231101 68 316 3.0 7.0 0.00 0.00 0.00 70 1013.9
20260906230601 68 326 4.0 7.0 0.00 0.00 0.00 69 1013.9
20260906230109 68 316 4.0 7.0 0.00 0.00 0.00 69 1013.8
20260906225100 68 317 3.0 5.0 0.00 0.00 0.00 69 1013.9
20260906224601 69 320 2.0 5.0 0.00 0.00 0.00 67 1013.9
20260906224100 69 320 2.0 5.0 0.00 0.00 0.00 69 1013.9
20260906223603 68 335 3.0 5.0 0.00 0.00 0.00 70 1013.9
20260906223100 69 330 3.0 5.0 0.00 0.00 0.00 70 1013.9
20260906222601 69 353 3.0 4.0 0.00 0.00 0.00 70 1013.9
20260906222326 69 307 2.0 4.0 0.00 0.00 0.00 69 1014.1
20260906221558 68 326 2.0 4.0 0.00 0.00 0.00 68 1014.0
20260906221051 69 348 2.0 6.0 0.00 0.00 0.00 68 1014.1
20260906220549 68 39 2.0 6.0 0.00 0.00 0.00 70 1014.1
20260906220039 67 49 2.0 5.0 0.00 0.00 0.00 71 1014.1
20260906215538 67 353 2.0 6.0 0.00 0.00 0.00 71 1014.1
20260906215038 68 341 2.0 6.0 0.00 0.00 0.00 69 1014.2
20260906214537 68 313 2.0 5.0 0.00 0.00 0.00 71 1014.1
20260906214036 68 316 1.0 5.0 0.00 0.00 0.00 69 1014.2
20260906213533 68 213 2.0 5.0 0.00 0.00 0.00 70 1014.3
20260906213306 67 339 2.0 5.0 0.00 0.00 0.00 70 1014.3
20260906212532 67 316 2.0 5.0 0.00 0.00 0.00 70 1014.4
20260906212030 68 325 2.0 5.0 0.00 0.00 0.00 70 1014.5
20260906211530 67 18 1.0 4.0 0.00 0.00 0.00 70 1014.5
20260906211301 67 312 2.0 5.0 0.00 0.00 0.00 71 1014.5
20260906210532 67 295 2.0 5.0 0.00 0.00 0.00 71 1014.4
20260906210032 67 323 2.0 4.0 0.00 0.00 0.00 71 1014.5
20260906205530 67 359 2.0 5.0 0.00 0.00 0.00 71 1014.5
20260906205030 67 351 1.0 5.0 0.00 0.00 0.00 70 1014.5
20260906204529 68 50 1.0 4.0 0.00 0.00 0.00 71 1014.5
20260906204030 68 24 1.0 3.0 0.00 0.00 0.00 71 1014.6
20260906203529 67 359 1.0 3.0 0.00 0.00 0.00 72 1014.6
20260906203030 66 359 1.0 3.0 0.00 0.00 0.00 74 1014.7
20260906202532 65 90 2.0 4.0 0.00 0.00 0.00 76 1014.6
20260906202027 65 327 2.0 4.0 0.00 0.00 0.00 77 1014.7
20260906201528 65 341 2.0 4.0 0.00 0.00 0.00 78 1014.7
20260906201027 65 334 2.0 5.0 0.00 0.00 0.00 76 1014.7
20260906200529 65 330 2.0 5.0 0.00 0.00 0.00 75 1014.8
20260906200028 66 355 2.0 4.0 0.00 0.00 0.00 77 1014.8
20260906195746 64 353 2.0 5.0 0.00 0.00 0.00 79 1014.8
20260906195027 64 322 2.0 5.0 0.00 0.00 0.00 80 1015.0
20260906194522 63 322 2.0 5.0 0.00 0.00 0.00 81 1014.9
20260906194021 63 345 2.0 6.0 0.00 0.00 0.00 80 1014.9
20260906193522 64 285 2.0 7.0 0.00 0.00 0.00 81 1015.0
20260906193021 63 270 3.0 7.0 0.00 0.00 0.00 80 1015.1
20260906192521 63 312 3.0 7.0 0.00 0.00 0.00 81 1015.1
20260906192021 63 303 2.0 5.0 0.00 0.00 0.00 81 1015.1
20260906191522 62 321 3.0 6.0 0.00 0.00 0.00 81 1015.2
20260906191022 62 317 3.0 6.0 0.00 0.00 0.00 81 1015.3
20260906190522 62 314 2.0 8.0 0.00 0.00 0.00 82 1015.3
20260906190249 62 310 2.0 8.0 0.00 0.00 0.00 82 1015.4
20260906185520 62 329 2.0 4.0 0.00 0.00 0.00 81 1015.4
20260906185018 62 317 2.0 5.0 0.00 0.00 0.00 82 1015.4
20260906184740 62 316 2.0 7.0 0.00 0.00 0.00 83 1015.4
20260906184011 61 305 2.0 7.0 0.00 0.00 0.00 83 1015.5
20260906183740 61 328 2.0 5.0 0.00 0.00 0.00 85 1015.6
20260906183012 61 305 2.0 5.0 0.00 0.00 0.00 84 1015.6
20260906182512 61 318 3.0 7.0 0.00 0.00 0.00 84 1015.7
20260906182234 61 310 3.0 7.0 0.00 0.00 0.00 84 1015.7
20260906181731 61 295 3.0 6.0 0.00 0.00 0.00 84 1015.9
20260906181230 60 299 3.0 8.0 0.00 0.00 0.00 85 1015.8
20260906180505 60 299 4.0 8.0 0.00 0.00 0.00 85 1015.9
20260906180003 60 326 4.0 9.0 0.00 0.00 0.00 85 1015.8
20260906175502 60 314 3.0 9.0 0.00 0.00 0.00 86 1015.8
20260906175001 60 300 3.0 8.0 0.00 0.00 0.00 86 1015.8
20260906174502 60 308 3.0 5.0 0.00 0.00 0.00 86 1015.7
20260906174001 60 316 2.0 5.0 0.00 0.00 0.00 86 1015.7
20260906173459 60 317 2.0 5.0 0.00 0.00 0.00 87 1015.8
20260906172956 60 310 2.0 5.0 0.00 0.00 0.00 86 1015.8
20260906172449 60 310 2.0 5.0 0.00 0.00 0.00 86 1015.8
20260906171944 60 295 2.0 5.0 0.00 0.00 0.00 86 1015.8
20260906171703 60 308 2.0 5.0 0.00 0.00 0.00 86 1015.8
20260906170934 60 303 3.0 5.0 0.00 0.00 0.00 86 1015.8
20260906170659 60 310 2.0 5.0 0.00 0.00 0.00 86 1015.8
20260906165932 59 311 1.0 4.0 0.00 0.00 0.00 86 1015.8
20260906165432 59 309 2.0 7.0 0.00 0.00 0.00 86 1015.9
20260906164930 59 309 3.0 7.0 0.00 0.00 0.00 86 1015.9
20260906164432 59 310 2.0 5.0 0.00 0.00 0.00 86 1016.0
20260906163931 59 319 1.0 3.0 0.00 0.00 0.00 86 1016.0
20260906163431 59 301 1.0 3.0 0.00 0.00 0.00 86 1016.1
20260906162931 59 302 2.0 4.0 0.00 0.00 0.00 86 1016.1
20260906162431 59 301 2.0 4.0 0.00 0.00 0.00 86 1016.1
20260906161931 59 295 1.0 5.0 0.00 0.00 0.00 86 1016.1
20260906161429 59 302 0.0 5.0 0.00 0.00 0.00 86 1016.0
20260906160929 59 232 0.0 0.0 0.00 0.00 0.00 87 1016.0
20260906160429 59 237 0.0 0.0 0.00 0.00 0.00 87 1016.1
20260906155930 59 238 0.0 0.0 0.00 0.00 0.00 87 1016.0
20260906155431 59 230 0.0 2.0 0.00 0.00 0.00 87 1016.1
20260906154930 59 137 0.0 2.0 0.00 0.00 0.00 87 1016.1
20260906154430 59 139 0.0 3.0 0.00 0.00 0.00 87 1016.1
20260906153931 58 137 0.0 3.0 0.00 0.00 0.00 87 1016.2
20260906153431 58 82 0.0 3.0 0.00 0.00 0.00 87 1016.3
20260906152930 58 81 1.0 3.0 0.00 0.00 0.00 86 1016.2
20260906152431 58 82 1.0 4.0 0.00 0.00 0.00 87 1016.2
20260906151930 57 120 2.0 4.0 0.00 0.00 0.00 87 1016.1
20260906151712 57 95 2.0 5.0 0.00 0.00 0.00 88 1016.1
20260906150930 56 97 2.0 5.0 0.00 0.00 0.00 87 1016.0
20260906150431 56 94 2.0 4.0 0.00 0.00 0.00 87 1016.0
20260906145934 56 94 2.0 4.0 0.00 0.00 0.00 86 1016.0
20260906145433 56 94 2.0 5.0 0.00 0.00 0.00 86 1016.1
20260906144930 56 94 2.0 5.0 0.00 0.00 0.00 85 1016.1
20260906144430 56 94 2.0 4.0 0.00 0.00 0.00 85 1016.1
20260906143933 56 94 2.0 4.0 0.00 0.00 0.00 86 1016.1
20260906143429 55 93 2.0 4.0 0.00 0.00 0.00 84 1016.1
20260906142929 55 93 2.0 5.0 0.00 0.00 0.00 83 1016.1
20260906142429 56 93 3.0 5.0 0.00 0.00 0.00 83 1016.2
20260906141929 56 93 3.0 5.0 0.00 0.00 0.00 83 1016.1
20260906141425 56 93 3.0 6.0 0.00 0.00 0.00 82 1016.0
20260906140925 56 93 4.0 6.0 0.00 0.00 0.00 82 1015.9
20260906140425 56 103 4.0 7.0 0.00 0.00 0.00 82 1015.8
20260906135923 56 95 4.0 7.0 0.00 0.00 0.00 82 1015.7
20260906135422 56 94 4.0 7.0 0.00 0.00 0.00 82 1015.7
20260906134923 56 98 4.0 6.0 0.00 0.00 0.00 82 1015.6
20260906134423 56 101 4.0 6.0 0.00 0.00 0.00 82 1015.6
20260906133923 56 92 4.0 6.0 0.00 0.00 0.00 82 1015.4
20260906133425 56 101 4.0 6.0 0.00 0.00 0.00 82 1015.5
20260906132923 56 102 4.0 6.0 0.00 0.00 0.00 82 1015.5
20260906132423 56 99 4.0 6.0 0.00 0.00 0.00 82 1015.5
20260906132156 56 87 4.0 7.0 0.00 0.00 0.00 82 1015.5
20260906131423 56 102 4.0 7.0 0.00 0.00 0.00 81 1015.5
20260906125920 56 95 5.0 8.0 0.00 0.00 0.00 81 1015.6
20260906125655 56 94 5.0 8.0 0.00 0.00 0.00 81 1015.6
20260906124921 55 101 4.0 8.0 0.00 0.00 0.00 82 1015.6
20260906124421 55 97 4.0 7.0 0.00 0.00 0.00 82 1015.7
20260906123921 56 87 4.0 8.0 0.00 0.00 0.00 83 1015.6
20260906123421 56 97 3.0 8.0 0.00 0.00 0.00 83 1015.7
20260906122921 56 97 3.0 6.0 0.00 0.00 0.00 83 1015.7
20260906122421 56 104 3.0 5.0 0.00 0.00 0.00 84 1015.7
20260906121922 56 98 3.0 5.0 0.00 0.00 0.00 84 1015.8
20260906121417 56 92 3.0 5.0 0.00 0.00 0.00 83 1015.8
20260906120917 56 92 3.0 5.0 0.00 0.00 0.00 83 1015.8
20260906120649 56 80 3.0 5.0 0.00 0.00 0.00 83 1015.8
20260906115917 56 80 4.0 6.0 0.00 0.00 0.00 83 1015.9
20260906115422 56 98 3.0 6.0 0.00 0.00 0.00 83 1015.7
20260906114920 56 91 3.0 5.0 0.00 0.00 0.00 83 1015.7
20260906114421 56 95 2.0 5.0 0.00 0.00 0.00 83 1015.6
20260906113917 56 95 3.0 5.0 0.00 0.00 0.00 82 1015.6
20260906113419 56 99 4.0 5.0 0.00 0.00 0.00 82 1015.6
20260906113146 56 95 3.0 5.0 0.00 0.00 0.00 82 1015.7
20260906112416 56 98 3.0 5.0 0.00 0.00 0.00 82 1015.6
20260906111912 56 99 3.0 5.0 0.00 0.00 0.00 83 1015.7
20260906111412 56 98 3.0 5.0 0.00 0.00 0.00 83 1015.7
20260906111134 56 99 2.0 4.0 0.00 0.00 0.00 83 1015.7
20260906110409 56 99 2.0 4.0 0.00 0.00 0.00 83 1015.8
20260906105904 56 98 2.0 4.0 0.00 0.00 0.00 83 1015.7
20260906105404 56 99 2.0 4.0 0.00 0.00 0.00 83 1015.8
20260906104902 56 99 2.0 4.0 0.00 0.00 0.00 83 1015.8
20260906104401 56 99 2.0 4.0 0.00 0.00 0.00 82 1015.7
20260906103901 56 99 2.0 4.0 0.00 0.00 0.00 83 1015.7
20260906103401 56 99 2.0 4.0 0.00 0.00 0.00 83 1015.6
20260906102401 56 99 2.0 4.0 0.00 0.00 0.00 83 1015.7
20260906101903 56 99 2.0 4.0 0.00 0.00 0.00 83 1015.7
20260906101628 57 99 1.0 4.0 0.00 0.00 0.00 83 1015.7
20260906101130 57 99 0.0 0.0 0.00 0.00 0.00 83 1015.8
20260906100356 57 99 1.0 4.0 0.00 0.00 0.00 83 1015.8
20260906095854 57 99 1.0 4.0 0.00 0.00 0.00 83 1015.7
20260906095354 57 100 0.0 4.0 0.00 0.00 0.00 83 1015.7
20260906094847 57 75 1.0 3.0 0.00 0.00 0.00 82 1015.8
20260906094342 57 74 1.0 3.0 0.00 0.00 0.00 80 1015.7
20260906093836 57 74 1.0 2.0 0.00 0.00 0.00 79 1015.6
20260906093330 57 74 1.0 2.0 0.00 0.00 0.00 78 1015.7
20260906092830 57 74 1.0 2.0 0.00 0.00 0.00 77 1015.9
20260906092330 57 74 2.0 2.0 0.00 0.00 0.00 77 1015.7
20260906092100 58 74 1.0 2.0 0.00 0.00 0.00 77 1015.8
20260906091330 58 74 0.0 2.0 0.00 0.00 0.00 76 1015.8
20260906090830 58 74 1.0 2.0 0.00 0.00 0.00 75 1015.9
20260906090336 58 74 1.0 2.0 0.00 0.00 0.00 75 1015.9
20260906085831 58 74 2.0 3.0 0.00 0.00 0.00 74 1015.9
20260906085329 59 74 2.0 4.0 0.00 0.00 0.00 73 1015.9
20260906084829 59 74 2.0 4.0 0.00 0.00 0.00 74 1016.0
20260906084329 59 44 2.0 3.0 0.00 0.00 0.00 73 1016.0
20260906083829 59 44 2.0 3.0 0.00 0.00 0.00 72 1016.1
20260906083329 59 43 2.0 3.0 0.00 0.00 0.00 72 1016.1
20260906082829 59 43 2.0 3.0 0.00 0.00 0.00 72 1016.0
20260906082553 59 43 2.0 3.0 0.00 0.00 0.00 71 1016.0
20260906081828 59 42 2.0 3.0 0.00 0.00 0.00 71 1016.0
20260906081329 59 42 2.0 3.0 0.00 0.00 0.00 72 1016.0
20260906081058 59 42 2.0 3.0 0.00 0.00 0.00 73 1016.0
20260906080329 59 42 2.0 3.0 0.00 0.00 0.00 72 1016.0
20260906075830 59 42 2.0 3.0 0.00 0.00 0.00 73 1016.0
20260906075329 59 42 2.0 3.0 0.00 0.00 0.00 73 1016.0
20260906074830 59 39 2.0 3.0 0.00 0.00 0.00 73 1016.1
20260906074329 59 39 2.0 3.0 0.00 0.00 0.00 74 1016.1
20260906073832 59 39 2.0 3.0 0.00 0.00 0.00 75 1016.0
20260906073328 59 39 2.0 3.0 0.00 0.00 0.00 75 1016.1
20260906073056 59 39 2.0 3.0 0.00 0.00 0.00 75 1016.1
20260906072330 59 39 2.0 3.0 0.00 0.00 0.00 74 1016.1
20260906071829 59 39 2.0 3.0 0.00 0.00 0.00 75 1016.1
20260906071329 59 27 2.0 3.0 0.00 0.00 0.00 75 1016.2
20260906070830 59 27 2.0 3.0 0.00 0.00 0.00 75 1016.1
20260906070329 59 26 2.0 3.0 0.00 0.00 0.00 75 1016.2
20260906065829 59 26 2.0 3.0 0.00 0.00 0.00 75 1016.2
20260906065328 59 26 2.0 2.0 0.00 0.00 0.00 76 1016.3
20260906064829 59 25 1.0 2.0 0.00 0.00 0.00 76 1016.3
20260906064328 59 25 1.0 2.0 0.00 0.00 0.00 76 1016.3
20260906063823 60 25 2.0 3.0 0.00 0.00 0.00 76 1016.3
20260906063317 59 25 2.0 3.0 0.00 0.00 0.00 76 1016.2
20260906062811 59 25 2.0 3.0 0.00 0.00 0.00 76 1016.2
20260906062310 59 25 2.0 3.0 0.00 0.00 0.00 76 1016.1
20260906062037 60 25 2.0 3.0 0.00 0.00 0.00 76 1016.1
20260906060805 59 25 2.0 3.0 0.00 0.00 0.00 76 1016.0
20260906060534 59 25 2.0 3.0 0.00 0.00 0.00 76 1016.0
20260906055805 59 25 2.0 2.0 0.00 0.00 0.00 76 1016.0
20260906055525 60 25 2.0 3.0 0.00 0.00 0.00 76 1016.0
20260906054801 60 25 2.0 3.0 0.00 0.00 0.00 75 1016.0
20260906054302 60 25 2.0 3.0 0.00 0.00 0.00 76 1016.0
20260906054025 60 25 2.0 3.0 0.00 0.00 0.00 76 1016.1
20260906053301 60 25 2.0 3.0 0.00 0.00 0.00 75 1016.1
20260906053021 60 25 2.0 3.0 0.00 0.00 0.00 75 1016.2
20260906052533 60 25 2.0 3.0 0.00 0.00 0.00 75 1016.3
20260906051801 60 25 2.0 3.0 0.00 0.00 0.00 75 1016.3
20260906051301 60 25 2.0 3.0 0.00 0.00 0.00 75 1016.3
20260906050801 60 25 3.0 3.0 0.00 0.00 0.00 76 1016.3
20260906050301 60 25 3.0 3.0 0.00 0.00 0.00 75 1016.4
20260906045802 60 25 2.0 3.0 0.00 0.00 0.00 74 1016.3
20260906045301 60 25 2.0 3.0 0.00 0.00 0.00 74 1016.4
20260906044801 60 25 2.0 3.0 0.00 0.00 0.00 74 1016.5
20260906044530 60 25 2.0 3.0 0.00 0.00 0.00 75 1016.5
20260906043759 60 25 2.0 3.0 0.00 0.00 0.00 75 1016.4
20260906043259 60 25 3.0 3.0 0.00 0.00 0.00 75 1016.4
20260906043032 60 25 3.0 3.0 0.00 0.00 0.00 74 1016.4
20260906042256 60 25 2.0 3.0 0.00 0.00 0.00 74 1016.4
20260906041755 60 25 2.0 3.0 0.00 0.00 0.00 74 1016.4
20260906041253 60 25 2.0 3.0 0.00 0.00 0.00 74 1016.4
20260906040753 60 25 2.0 3.0 0.00 0.00 0.00 74 1016.4
20260906040253 61 25 2.0 3.0 0.00 0.00 0.00 74 1016.3
20260906035756 61 24 2.0 3.0 0.00 0.00 0.00 73 1016.4
20260906035256 61 24 2.0 3.0 0.00 0.00 0.00 74 1016.2
20260906034754 61 24 2.0 3.0 0.00 0.00 0.00 73 1016.2
20260906034251 61 24 2.0 3.0 0.00 0.00 0.00 73 1016.1
20260906033751 61 24 2.0 3.0 0.00 0.00 0.00 72 1016.1
20260906033251 61 24 2.0 3.0 0.00 0.00 0.00 72 1016.2
20260906032751 61 24 2.0 3.0 0.00 0.00 0.00 71 1016.2
20260906032251 61 24 2.0 3.0 0.00 0.00 0.00 70 1016.3
20260906031251 61 24 2.0 3.0 0.00 0.00 0.00 69 1016.3
20260906031022 61 24 2.0 3.0 0.00 0.00 0.00 69 1016.3
20260906030251 62 309 2.0 3.0 0.00 0.00 0.00 68 1016.3
20260906025751 62 301 1.0 2.0 0.00 0.00 0.00 68 1016.4
20260906025251 63 301 1.0 2.0 0.00 0.00 0.00 67 1016.5
20260906024751 63 301 1.0 2.0 0.00 0.00 0.00 66 1016.6
20260906024251 64 301 0.0 1.0 0.00 0.00 0.00 65 1016.6
20260906023751 65 301 0.0 1.0 0.00 0.00 0.00 64 1016.6
20260906023250 65 301 0.0 1.0 0.00 0.00 0.00 63 1016.6
20260906022751 66 301 1.0 3.0 0.00 0.00 0.00 63 1016.6
20260906022515 67 301 1.0 3.0 0.00 0.00 0.00 61 1016.5
20260906021747 66 300 1.0 3.0 0.00 0.00 0.00 62 1016.5
20260906021512 67 299 0.0 2.0 0.00 0.00 0.00 61 1016.3
20260906020741 67 299 1.0 4.0 0.00 0.00 0.00 60 1016.3
20260906020509 67 299 2.0 4.0 0.00 0.00 0.00 60 1016.3
20260906020009 67 295 1.0 3.0 0.00 0.00 0.00 61 1016.2
20260906015239 67 312 1.0 4.0 0.00 0.00 0.00 61 1016.1
20260906014737 67 312 2.0 4.0 0.00 0.00 0.00 60 1016.1
20260906014501 67 308 2.0 4.0 0.00 0.00 0.00 61 1016.1
20260906013732 66 308 2.0 5.0 0.00 0.00 0.00 61 1016.1
20260906013230 66 307 3.0 5.0 0.00 0.00 0.00 60 1016.0
20260906012730 67 315 2.0 5.0 0.00 0.00 0.00 60 1016.1
20260906012501 67 310 2.0 4.0 0.00 0.00 0.00 60 1016.1
20260906011730 67 312 3.0 5.0 0.00 0.00 0.00 60 1016.1
20260906011230 67 311 3.0 5.0 0.00 0.00 0.00 60 1016.1
20260906010729 67 318 2.0 4.0 0.00 0.00 0.00 60 1016.0
20260906010504 67 317 2.0 4.0 0.00 0.00 0.00 59 1016.1
20260906005729 67 318 2.0 4.0 0.00 0.00 0.00 60 1016.0
20260906005229 67 307 2.0 5.0 0.00 0.00 0.00 60 1016.0
20260906004728 67 317 3.0 5.0 0.00 0.00 0.00 61 1016.0
20260906004230 66 328 3.0 5.0 0.00 0.00 0.00 62 1016.0
20260906003729 67 312 3.0 5.0 0.00 0.00 0.00 62 1016.0
20260906003456 67 311 3.0 5.0 0.00 0.00 0.00 61 1016.0
20260906002719 66 314 2.0 5.0 0.00 0.00 0.00 62 1016.0
20260906002440 67 314 2.0 5.0 0.00 0.00 0.00 62 1016.0
20260906001944 67 310 3.0 5.0 0.00 0.00 0.00 62 1016.1
20260906001442 66 317 2.0 5.0 0.00 0.00 0.00 62 1016.0
20260906000710 67 321 2.0 4.0 0.00 0.00 0.00 63 1016.0
20260906000212 68 38 2.0 7.0 0.00 0.00 0.00 63 1016.1
20260905235710 67 306 2.0 7.0 0.00 0.00 0.00 65 1016.0
20260905235210 67 307 2.0 5.0 0.00 0.00 0.00 64 1016.1
20260905234940 68 332 1.0 6.0 0.00 0.00 0.00 62 1016.1
20260905234211 67 336 2.0 6.0 0.00 0.00 0.00 65 1016.1
20260905233708 67 132 2.0 5.0 0.00 0.00 0.00 64 1016.1
20260905233207 67 305 2.0 5.0 0.00 0.00 0.00 66 1016.1
20260905232708 65 313 3.0 5.0 0.00 0.00 0.00 67 1016.1
20260905232206 66 335 3.0 5.0 0.00 0.00 0.00 67 1016.1